period_start,C,m1,H,J0,J1,J2,J3,J4,J5,JA,JB,JC,JD,JJ,JK,JN,#
2014-04-10 00:00:37,0.03,2.37,0.00,23.15,28.32,31.05,6.02,31.08,999.53,2033.95,2611.88,2674.96,2887.99,349.80,317.76,15.02,0000 0000 0000 0000 000000
2014-04-10 00:01:37,0.08,2.38,0.00,23.16,28.32,31.04,6.02,31.00,999.53,2033.96,2611.42,2674.72,2887.75,351.43,319.31,15.02,0000 0000 0000 0000 000000
2014-04-10 00:02:37,0.19,2.38,0.00,23.16,28.32,31.04,5.98,30.83,999.53,2033.98,2611.16,2674.40,2887.35,351.52,319.55,15.03,0000 0000 0000 0000 000000
2014-04-10 00:03:37,0.20,2.38,0.00,23.17,28.32,31.06,5.79,30.79,999.53,2033.98,2611.05,2674.17,2887.14,350.26,318.58,15.04,0000 0000 0000 0000 000000
2014-04-10 00:04:38,0.11,2.38,0.00,23.17,28.32,31.10,6.05,31.33,999.53,2033.95,2610.90,2674.06,2887.05,349.30,317.85,15.04,0000 0000 0000 0000 000000
2014-04-10 00:05:38,0.07,2.38,0.00,23.17,28.32,31.08,5.97,31.08,999.53,2033.94,2610.45,2674.02,2887.01,350.14,318.46,15.05,0000 0000 0000 0000 000000
2014-04-10 00:06:38,0.09,2.38,0.00,23.17,28.32,31.07,6.05,31.21,999.54,2033.95,2610.17,2673.97,2886.93,350.65,318.29,15.05,0000 0000 0000 0000 000000
2014-04-10 00:07:38,0.10,2.38,0.00,23.17,28.32,31.11,5.95,31.33,999.53,2033.96,2610.06,2673.76,2886.55,349.90,318.57,15.06,0000 0000 0000 0000 000000
2014-04-10 00:08:39,0.16,2.38,0.00,23.17,28.32,31.08,5.77,31.08,999.53,2033.97,2609.94,2673.41,2886.23,349.44,317.83,15.07,0000 0000 0000 0000 000000
2014-04-10 00:09:39,0.18,2.38,0.00,23.17,28.32,31.05,5.90,31.13,999.54,2033.95,2609.53,2673.17,2886.08,349.91,318.26,15.07,0000 0000 0000 0000 000000
2014-04-10 00:10:39,0.14,2.38,0.00,23.17,28.32,31.09,5.94,31.04,999.54,2033.95,2609.20,2673.06,2886.02,349.62,318.00,15.08,0000 0000 0000 0000 000000
2014-04-10 00:11:40,0.11,2.38,0.00,23.17,28.32,31.07,5.84,30.83,999.54,2033.96,2609.07,2673.02,2885.96,350.29,318.60,15.08,0000 0000 0000 0000 000000
2014-04-10 00:12:40,0.06,2.38,0.00,23.18,28.32,31.06,6.00,31.04,999.54,2033.97,2609.01,2673.00,2885.86,349.91,318.26,15.09,0000 0000 0000 0000 000000
2014-04-10 00:13:40,0.07,2.38,0.00,23.18,28.32,31.08,6.04,31.08,999.55,2033.97,2608.63,2672.82,2885.42,349.92,318.26,15.09,0000 0000 0000 0000 000000
2014-04-10 00:14:40,0.18,2.39,0.00,23.17,28.32,31.09,5.95,31.17,999.55,2033.93,2608.24,2672.42,2885.16,349.75,318.21,15.10,0000 0000 0000 0000 000000
2014-04-10 00:15:41,0.19,2.39,0.00,23.17,28.32,31.10,6.00,31.08,999.53,2033.95,2608.08,2672.16,2885.05,350.43,318.24,15.11,0000 0000 0000 0000 000000
2014-04-10 00:16:41,0.11,2.39,0.00,23.17,28.32,31.07,5.88,31.08,999.56,2033.95,2607.98,2672.05,2885.00,349.45,317.95,15.11,0000 0000 0000 0000 000000
2014-04-10 00:17:41,0.08,2.39,0.00,23.17,28.32,31.06,5.96,30.71,999.57,2033.97,2607.63,2672.02,2884.93,349.94,318.29,15.12,0000 0000 0000 0000 000000
2014-04-10 00:18:41,0.10,2.39,0.00,23.17,28.32,31.07,5.99,30.83,999.57,2033.96,2607.24,2671.98,2884.56,351.13,319.36,15.12,0000 0000 0000 0000 000000
2014-04-10 00:19:42,0.13,2.39,0.00,23.16,28.32,31.04,5.92,30.92,999.56,2033.95,2607.08,2671.86,2884.20,350.76,319.09,15.13,0000 0000 0000 0000 000000
2014-04-10 00:20:42,0.11,2.39,0.00,23.15,28.32,31.00,5.94,30.75,999.55,2033.93,2607.01,2671.51,2884.07,350.47,318.79,15.14,0000 0000 0000 0000 000000
2014-04-10 00:21:42,0.13,2.39,0.00,23.14,28.32,31.09,5.81,30.88,999.59,2033.89,2606.67,2671.19,2884.01,349.62,318.05,15.14,0000 0000 0000 0000 000000
2014-04-10 00:22:42,0.15,2.39,0.00,23.12,28.32,31.06,5.90,30.96,999.57,2033.89,2606.24,2671.08,2883.95,350.17,318.54,15.15,0000 0000 0000 0000 000000
2014-04-10 00:23:43,0.12,2.39,0.00,23.12,28.32,31.07,5.93,30.96,999.54,2033.92,2606.08,2671.03,2883.87,350.18,318.51,15.15,0000 0000 0000 0000 000000
2014-04-10 00:24:43,0.09,2.39,0.00,23.12,28.32,31.09,5.82,31.13,999.55,2033.90,2606.02,2670.99,2883.56,348.99,317.22,15.16,0000 0000 0000 0000 000000
2014-04-10 00:25:43,0.04,2.39,0.00,23.12,28.32,31.04,5.93,31.13,999.54,2033.88,2605.89,2670.97,2883.21,350.29,318.14,15.16,0000 0000 0000 0000 000000
2014-04-10 00:26:44,0.11,2.39,0.00,23.14,28.32,31.04,5.82,30.88,999.53,2033.94,2605.46,2670.63,2883.08,350.58,318.90,15.17,0000 0000 0000 0000 000000
2014-04-10 00:27:44,0.22,2.40,0.00,23.14,28.32,31.03,5.84,30.58,999.53,2033.96,2605.17,2670.26,2883.02,348.94,317.40,15.18,0000 0000 0000 0000 000000
2014-04-10 00:28:44,0.16,2.40,0.00,23.14,28.32,31.03,5.93,31.00,999.53,2033.95,2605.05,2670.09,2882.99,350.62,318.93,15.18,0000 0000 0000 0000 000000
2014-04-10 00:29:44,0.07,2.40,0.00,23.13,28.32,31.03,5.79,31.13,999.54,2033.90,2604.92,2670.03,2882.80,349.74,318.14,15.19,0000 0000 0000 0000 000000
2014-04-10 00:30:45,0.03,2.40,0.00,23.12,28.32,31.04,6.03,31.00,999.54,2033.81,2604.43,2670.01,2882.33,350.71,319.04,15.19,0000 0000 0000 0000 000000
2014-04-10 00:31:45,0.11,2.40,0.00,23.10,28.32,31.09,6.05,31.54,999.54,2033.83,2604.17,2669.97,2882.13,350.40,318.78,15.20,0000 0000 0000 0000 000000
2014-04-10 00:32:45,0.09,2.40,0.00,23.10,28.32,31.12,5.78,31.04,999.54,2033.88,2604.06,2669.80,2882.04,348.77,317.30,15.21,0000 0000 0000 0000 000000
2014-04-10 00:33:45,0.16,2.40,0.00,23.09,28.32,31.08,5.95,31.21,999.54,2033.93,2604.01,2669.48,2882.00,349.29,317.71,15.21,0000 0000 0000 0000 000000
2014-04-10 00:34:46,0.13,2.40,0.00,23.10,28.32,31.09,5.89,31.17,999.54,2033.94,2603.89,2669.25,2881.99,349.91,318.34,15.22,0000 0000 0000 0000 000000
2014-04-10 00:35:46,0.12,2.40,0.00,23.10,28.32,31.13,5.90,31.00,999.53,2033.94,2603.44,2669.10,2881.91,349.75,318.19,15.22,0000 0000 0000 0000 000000
2014-04-10 00:36:46,0.12,2.40,0.00,23.10,28.32,31.09,5.95,31.00,999.54,2033.94,2603.17,2669.03,2881.57,349.52,318.23,15.23,0000 0000 0000 0000 000000
2014-04-10 00:37:47,0.12,2.40,0.00,23.09,28.32,31.10,5.94,31.13,999.54,2033.92,2603.05,2669.01,2881.27,350.07,318.64,15.24,0000 0000 0000 0000 000000
2014-04-10 00:38:47,0.07,2.40,0.00,23.10,28.32,31.08,5.91,31.25,999.54,2033.91,2603.01,2668.96,2881.11,350.16,318.77,15.24,0000 0000 0000 0000 000000
2014-04-10 00:39:47,0.03,2.40,0.00,23.09,28.32,31.06,5.92,31.00,999.53,2033.93,2602.83,2668.89,2881.04,350.79,319.13,15.25,0000 0000 0000 0000 000000
2014-04-10 00:40:48,0.08,2.40,0.00,23.09,28.31,31.09,5.90,31.13,999.53,2033.94,2602.40,2668.73,2881.01,349.08,317.67,15.25,0000 0000 0000 0000 000000
2014-04-10 00:41:48,0.16,2.40,0.00,23.07,28.31,31.09,6.00,31.08,999.53,2033.96,2602.15,2668.42,2880.98,350.60,319.09,15.26,0000 0000 0000 0000 000000
2014-04-10 00:42:48,0.14,2.40,0.00,23.07,28.31,31.11,6.02,31.29,999.53,2033.94,2602.05,2668.16,2880.83,349.38,317.88,15.26,0000 0000 0000 0000 000000
2014-04-10 00:43:48,0.12,2.41,0.00,23.08,28.31,31.09,5.99,31.33,999.53,2033.95,2601.83,2668.06,2880.43,350.08,318.14,15.27,0000 0000 0000 0000 000000
2014-04-10 00:44:49,0.15,2.41,0.00,23.09,28.31,31.05,5.88,30.92,999.53,2033.92,2601.38,2668.01,2880.15,349.64,318.09,15.28,0000 0000 0000 0000 000000
2014-04-10 00:45:49,0.11,2.41,0.00,23.09,28.31,31.05,5.81,31.00,999.53,2033.90,2601.15,2667.98,2880.05,349.24,317.73,15.28,0000 0000 0000 0000 000000
2014-04-10 00:46:49,0.06,2.41,0.00,23.08,28.30,31.07,5.96,31.13,999.53,2033.91,2601.05,2667.76,2880.02,350.41,318.81,15.29,0000 0000 0000 0000 000000
2014-04-10 00:47:49,0.07,2.41,0.00,23.07,28.30,31.06,5.96,31.13,999.53,2033.87,2601.01,2667.40,2879.99,350.39,318.80,15.29,0000 0000 0000 0000 000000
2014-04-10 00:48:50,0.11,2.41,0.00,23.07,28.30,31.09,6.00,31.21,999.53,2033.93,2600.82,2667.19,2879.83,350.73,319.11,15.30,0000 0000 0000 0000 000000
2014-04-10 00:49:50,0.14,2.41,0.00,23.07,28.30,31.06,5.87,31.13,999.53,2033.91,2600.42,2667.08,2879.57,350.08,318.52,15.31,0000 0000 0000 0000 000000
2014-04-10 00:50:50,0.14,2.41,0.00,23.06,28.30,31.08,5.88,31.04,999.53,2033.91,2600.16,2667.03,2879.26,349.85,318.69,15.31,0000 0000 0000 0000 000000
2014-04-10 00:51:51,0.12,2.41,0.00,23.05,28.30,31.11,5.98,30.88,999.53,2033.91,2600.05,2667.01,2879.11,350.37,319.11,15.32,0000 0000 0000 0000 000000
2014-04-10 00:52:51,0.04,2.41,0.00,23.04,28.30,31.12,5.92,30.88,999.53,2033.87,2599.96,2666.96,2879.04,350.26,318.67,15.32,0000 0000 0000 0000 000000
2014-04-10 00:53:51,0.03,2.41,0.00,23.04,28.30,31.08,5.98,31.25,999.53,2033.91,2599.58,2666.70,2879.01,350.23,318.75,15.33,0000 0000 0000 0000 000000
2014-04-10 00:54:51,0.20,2.41,0.00,23.03,28.30,31.11,5.81,31.08,999.53,2033.92,2599.24,2666.30,2878.97,349.93,318.33,15.33,0000 0000 0000 0000 000000
2014-04-10 00:55:52,0.17,2.41,0.00,23.01,28.30,31.07,5.93,31.17,999.53,2033.92,2599.08,2666.13,2878.78,349.88,318.41,15.34,0000 0000 0000 0000 000000
2014-04-10 00:56:52,0.12,2.41,0.00,23.00,28.30,31.10,5.92,31.08,999.53,2033.89,2598.98,2666.05,2878.39,350.30,318.80,15.35,0000 0000 0000 0000 000000
2014-04-10 00:57:52,0.08,2.41,0.00,22.99,28.30,31.10,6.00,31.21,999.53,2033.90,2598.87,2666.01,2878.16,350.97,319.50,15.35,0000 0000 0000 0000 000000
2014-04-10 00:58:52,0.07,2.42,0.00,23.00,28.30,31.07,5.91,31.21,999.53,2033.91,2598.48,2665.97,2878.06,349.97,318.25,15.36,0000 0000 0000 0000 000000
2014-04-10 00:59:53,0.10,2.42,0.00,23.02,28.30,31.06,6.00,31.46,999.53,2033.91,2598.17,2665.88,2878.02,349.79,318.95,15.36,0000 0000 0000 0000 000000
2014-04-10 01:00:53,0.09,2.42,0.00,23.02,28.30,31.04,5.93,31.13,999.53,2033.90,2598.06,2665.49,2877.97,350.29,318.61,15.37,0000 0000 0000 0000 000000
2014-04-10 01:01:53,0.13,2.42,0.00,23.02,28.30,31.04,5.84,31.50,999.53,2033.89,2597.95,2665.24,2877.82,348.78,317.38,15.38,0000 0000 0000 0000 000000
2014-04-10 01:02:53,0.14,2.42,0.00,23.02,28.30,31.08,5.92,31.04,999.53,2033.85,2597.48,2665.08,2877.40,349.97,317.80,15.38,0000 0000 0000 0000 000000
2014-04-10 01:03:54,0.14,2.42,0.00,23.02,28.30,31.08,5.93,31.21,999.53,2033.78,2597.18,2665.03,2877.16,348.62,317.65,15.39,0000 0000 0000 0000 000000
2014-04-10 01:04:54,0.07,2.42,0.00,23.00,28.30,31.06,5.99,31.33,999.53,2033.80,2597.05,2665.01,2877.07,350.73,319.18,15.39,0000 0000 0000 0000 000000
2014-04-10 01:05:54,0.07,2.42,0.00,23.00,28.30,31.07,5.87,30.88,999.53,2033.86,2596.94,2664.95,2877.02,350.32,318.82,15.40,0000 0000 0000 0000 000000
2014-04-10 01:06:54,0.09,2.42,0.00,22.99,28.30,31.07,5.85,31.21,999.53,2033.89,2596.62,2664.79,2876.99,348.60,317.25,15.41,0000 0000 0000 0000 000000
2014-04-10 01:07:55,0.17,2.42,0.00,22.99,28.30,31.04,6.01,31.29,999.53,2033.91,2596.25,2664.45,2876.82,350.69,319.15,15.41,0000 0000 0000 0000 000000
2014-04-10 01:08:55,0.22,2.42,0.00,22.99,28.30,31.07,5.94,31.33,999.53,2033.90,2596.09,2664.18,2876.45,349.66,318.22,15.42,0000 0000 0000 0000 000000
2014-04-10 01:09:55,0.14,2.42,0.00,22.99,28.30,31.06,5.83,31.42,999.53,2033.91,2595.97,2664.08,2876.20,348.89,317.37,15.42,0000 0000 0000 0000 000000
2014-04-10 01:10:55,0.11,2.42,0.00,22.98,28.30,31.05,5.99,31.04,999.53,2033.92,2595.68,2664.03,2876.07,350.43,319.23,15.43,0000 0000 0000 0000 000000
2014-04-10 01:11:56,0.09,2.42,0.00,22.97,28.30,31.03,5.85,30.88,999.53,2033.92,2595.30,2664.00,2876.02,349.33,318.09,15.43,0000 0000 0000 0000 000000
2014-04-10 01:12:56,0.06,2.42,0.00,22.97,28.29,31.10,6.00,31.17,999.53,2033.90,2595.12,2663.95,2875.99,350.45,319.06,15.44,0000 0000 0000 0000 000000
2014-04-10 01:13:56,0.03,2.43,0.00,22.96,28.29,31.06,5.86,31.29,999.53,2033.87,2595.02,2663.70,2875.93,348.92,317.58,15.45,0000 0000 0000 0000 000000
2014-04-10 01:14:56,0.12,2.43,0.00,22.97,28.28,31.05,5.80,31.13,999.53,2033.89,2594.93,2663.31,2875.60,349.17,317.97,15.45,0000 0000 0000 0000 000000
2014-04-10 01:15:57,0.21,2.43,0.00,22.98,28.28,31.03,5.91,31.46,999.53,2033.92,2594.49,2663.12,2875.25,349.88,318.15,15.46,0000 0000 0000 0000 000000
2014-04-10 01:16:57,0.19,2.43,0.00,22.99,28.28,30.99,5.77,31.29,999.53,2033.95,2594.18,2663.04,2875.09,349.77,318.73,15.46,0000 0000 0000 0000 000000
2014-04-10 01:17:57,0.12,2.43,0.00,22.99,28.27,31.00,5.95,30.92,999.53,2033.97,2594.07,2663.01,2875.03,350.62,319.09,15.47,0000 0000 0000 0000 000000
2014-04-10 01:18:57,0.06,2.43,0.00,22.99,28.27,31.00,6.07,31.21,999.53,2033.96,2594.02,2662.99,2875.00,351.18,319.48,15.48,0000 0000 0000 0000 000000
2014-04-10 01:19:57,0.01,2.43,0.00,23.00,28.27,31.02,5.98,31.04,999.53,2033.97,2593.80,2662.96,2874.99,349.79,318.32,15.48,0000 0000 0000 0000 000000
2014-04-10 01:20:58,0.06,2.43,0.00,23.02,28.27,31.01,6.02,31.33,999.53,2033.95,2593.43,2662.78,2874.82,351.15,319.41,15.49,0000 0000 0000 0000 000000
2014-04-10 01:21:58,0.18,2.43,0.00,23.02,28.27,31.05,5.98,31.25,999.53,2033.97,2593.17,2662.45,2874.47,350.92,319.26,15.49,0000 0000 0000 0000 000000
2014-04-10 01:22:58,0.23,2.43,0.00,23.02,28.27,31.05,5.83,31.08,999.53,2033.98,2593.06,2662.18,2874.18,350.00,318.69,15.50,0000 0000 0000 0000 000000
2014-04-10 01:23:58,0.14,2.43,0.00,23.02,28.27,31.02,5.98,30.92,999.53,2033.98,2592.99,2662.07,2874.07,351.01,319.38,15.50,0000 0000 0000 0000 000000
2014-04-10 01:24:58,0.05,2.43,0.00,23.01,28.27,30.98,5.98,31.21,999.53,2033.98,2592.65,2662.02,2874.02,349.69,318.56,15.51,0000 0000 0000 0000 000000
2014-04-10 01:25:59,0.09,2.43,0.00,23.00,28.27,31.04,5.96,31.29,999.53,2033.99,2592.26,2662.00,2873.99,350.76,319.21,15.52,0000 0000 0000 0000 000000
2014-04-10 01:26:59,0.08,2.43,0.00,22.99,28.27,30.99,5.87,31.42,999.53,2033.99,2592.09,2661.92,2873.87,348.80,317.43,15.52,0000 0000 0000 0000 000000
2014-04-10 01:27:59,0.11,2.43,0.00,22.99,28.27,31.06,5.94,31.25,999.53,2033.98,2591.96,2661.52,2873.45,349.94,318.47,15.53,0000 0000 0000 0000 000000
2014-04-10 01:28:59,0.19,2.44,0.00,22.99,28.27,31.04,5.92,31.25,999.53,2033.97,2591.60,2661.22,2873.19,349.73,318.75,15.53,0000 0000 0000 0000 000000
2014-04-10 01:30:00,0.19,2.44,0.00,22.98,28.27,31.04,5.82,30.88,999.53,2033.98,2591.24,2661.08,2873.07,349.75,318.32,15.54,0000 0000 0000 0000 000000
2014-04-10 01:31:00,0.11,2.44,0.00,22.98,28.27,31.06,6.18,31.42,999.53,2033.97,2591.08,2661.03,2873.02,350.21,318.74,15.55,0000 0000 0000 0000 000000
2014-04-10 01:32:00,0.04,2.44,0.00,22.98,28.27,30.97,5.76,31.13,999.53,2033.94,2591.01,2660.97,2872.96,349.46,318.05,15.55,0000 0000 0000 0000 000000
2014-04-10 01:33:00,0.03,2.44,0.00,22.99,28.27,31.01,5.91,31.50,999.53,2033.93,2590.76,2660.92,2872.69,349.68,318.24,15.56,0000 0000 0000 0000 000000
2014-04-10 01:34:00,0.12,2.44,0.00,22.99,28.26,31.04,6.01,31.29,999.53,2033.96,2590.45,2660.88,2872.41,349.45,318.04,15.56,0000 0000 0000 0000 000000
2014-04-10 01:35:01,0.12,2.44,0.00,22.97,28.26,31.02,5.98,31.29,999.53,2033.97,2590.22,2660.65,2872.20,350.28,318.80,15.57,0000 0000 0000 0000 000000
2014-04-10 01:36:01,0.15,2.44,0.00,22.97,28.25,31.00,6.06,31.17,999.53,2033.97,2590.08,2660.35,2872.08,350.37,318.89,15.58,0000 0000 0000 0000 000000
2014-04-10 01:37:01,0.14,2.44,0.00,22.97,28.25,31.01,6.07,31.21,999.53,2033.98,2590.03,2660.14,2872.03,350.86,319.33,15.58,0000 0000 0000 0000 000000
2014-04-10 01:38:01,0.08,2.44,0.00,22.97,28.25,30.97,5.92,31.21,999.53,2033.99,2589.90,2660.05,2872.00,350.47,318.98,15.59,0000 0000 0000 0000 000000
2014-04-10 01:39:02,0.06,2.44,0.00,22.98,28.25,30.97,5.85,31.29,999.53,2033.99,2589.49,2660.01,2871.94,348.94,317.57,15.59,0000 0000 0000 0000 000000
2014-04-10 01:40:02,0.09,2.44,0.00,22.99,28.25,31.00,6.05,31.21,999.53,2033.99,2589.18,2660.00,2871.73,349.79,318.33,15.60,0000 0000 0000 0000 000000
2014-04-10 01:41:02,0.09,2.44,0.00,22.99,28.25,31.03,5.81,31.17,999.53,2033.98,2589.07,2659.96,2871.37,349.63,318.32,15.60,0000 0000 0000 0000 000000
2014-04-10 01:42:02,0.10,2.44,0.00,22.99,28.25,31.03,5.99,31.04,999.53,2033.99,2588.98,2659.61,2871.13,350.63,319.10,15.61,0000 0000 0000 0000 000000
2014-04-10 01:43:03,0.17,2.45,0.00,22.99,28.25,31.02,6.07,31.08,999.53,2033.99,2588.83,2659.27,2871.05,350.54,319.12,15.62,0000 0000 0000 0000 000000
2014-04-10 01:44:03,0.14,2.45,0.00,22.99,28.25,31.07,5.92,31.17,999.53,2033.98,2588.43,2659.11,2871.01,349.76,318.09,15.62,0000 0000 0000 0000 000000
2014-04-10 01:45:03,0.12,2.45,0.00,22.99,28.25,31.04,5.88,31.33,999.53,2033.99,2588.17,2659.04,2870.99,350.54,318.97,15.63,0000 0000 0000 0000 000000
2014-04-10 01:46:03,0.08,2.45,0.00,22.99,28.25,31.04,5.81,31.17,999.53,2033.99,2588.04,2659.01,2870.82,350.28,319.40,15.63,0000 0000 0000 0000 000000
2014-04-10 01:47:03,0.07,2.45,0.00,22.99,28.25,31.00,5.97,31.21,999.53,2033.99,2587.90,2658.99,2870.45,350.15,318.66,15.64,0000 0000 0000 0000 000000
2014-04-10 01:48:04,0.09,2.45,0.00,22.99,28.25,31.00,5.87,31.08,999.53,2033.99,2587.60,2658.90,2870.20,349.69,318.24,15.65,0000 0000 0000 0000 000000
2014-04-10 01:49:04,0.13,2.45,0.00,22.99,28.25,30.97,5.95,31.21,999.53,2033.99,2587.25,2658.51,2870.08,350.05,318.57,15.65,0000 0000 0000 0000 000000
2014-04-10 01:50:04,0.22,2.45,0.00,22.99,28.25,30.97,6.02,31.21,999.53,2033.99,2587.09,2658.22,2870.03,349.51,318.08,15.66,0000 0000 0000 0000 000000
2014-04-10 01:51:05,0.09,2.45,0.00,22.99,28.25,31.02,5.85,31.25,999.53,2033.98,2587.02,2658.08,2869.98,350.21,318.73,15.66,0000 0000 0000 0000 000000
2014-04-10 01:52:05,0.04,2.45,0.00,22.99,28.25,31.01,6.04,31.08,999.53,2033.99,2586.80,2658.03,2869.88,350.84,319.30,15.67,0000 0000 0000 0000 000000
2014-04-10 01:53:05,0.09,2.45,0.00,22.98,28.25,31.05,5.89,31.25,999.53,2033.99,2586.47,2658.01,2869.57,349.19,317.80,15.67,0000 0000 0000 0000 000000
2014-04-10 01:54:05,0.13,2.45,0.00,22.97,28.25,31.07,5.83,31.08,999.53,2033.98,2586.17,2657.95,2869.24,349.35,318.33,15.68,0000 0000 0000 0000 000000
2014-04-10 01:55:06,0.11,2.45,0.00,22.97,28.25,31.03,5.92,31.17,999.53,2033.99,2586.05,2657.72,2869.08,349.96,318.51,15.69,0000 0000 0000 0000 000000
2014-04-10 01:56:06,0.12,2.45,0.00,22.97,28.24,31.04,5.93,31.21,999.53,2033.99,2585.88,2657.39,2869.03,349.95,318.30,15.69,0000 0000 0000 0000 000000
2014-04-10 01:57:06,0.15,2.45,0.00,22.99,28.24,31.02,5.91,31.25,999.53,2033.99,2585.46,2657.20,2869.00,350.14,318.78,15.70,0000 0000 0000 0000 000000
2014-04-10 01:58:06,0.13,2.46,0.00,22.99,28.23,30.98,5.79,31.04,999.53,2033.99,2585.17,2657.08,2868.88,349.58,318.52,15.70,0000 0000 0000 0000 000000
2014-04-10 01:59:06,0.10,2.46,0.00,22.99,28.23,30.98,5.92,31.21,999.53,2033.99,2585.06,2657.02,2868.50,350.27,319.01,15.71,0000 0000 0000 0000 000000
2014-04-10 02:00:07,0.10,2.46,0.00,22.99,28.23,30.97,5.89,30.92,999.53,2033.99,2585.02,2656.99,2868.21,349.52,317.78,15.72,0000 0000 0000 0000 000000
2014-04-10 02:01:07,0.06,2.46,0.00,23.01,28.22,30.98,6.04,31.17,999.53,2033.99,2584.89,2656.98,2868.07,350.50,318.97,15.72,0000 0000 0000 0000 000000
2014-04-10 02:02:07,0.04,2.46,0.00,23.02,28.22,30.98,5.89,31.08,999.53,2033.99,2584.48,2656.85,2868.03,349.73,318.75,15.73,0000 0000 0000 0000 000000
2014-04-10 02:03:07,0.14,2.46,0.00,23.02,28.22,30.97,6.01,30.92,999.53,2033.99,2584.19,2656.50,2867.99,350.56,319.21,15.73,0000 0000 0000 0000 000000
2014-04-10 02:04:07,0.17,2.46,0.00,23.02,28.22,31.02,6.04,31.25,999.53,2033.99,2584.07,2656.19,2867.94,350.15,318.73,15.74,0000 0000 0000 0000 000000
2014-04-10 02:05:08,0.10,2.46,0.00,23.02,28.22,30.99,5.90,31.08,999.53,2033.99,2584.01,2656.07,2867.63,349.19,317.58,15.74,0000 0000 0000 0000 000000
2014-04-10 02:06:08,0.10,2.46,0.00,23.02,28.22,30.99,5.96,31.13,999.52,2033.99,2583.89,2656.02,2867.27,349.73,318.56,15.75,0000 0000 0000 0000 000000
2014-04-10 02:07:08,0.09,2.46,0.00,23.02,28.22,31.02,5.91,31.00,999.52,2033.99,2583.50,2656.00,2867.11,348.96,318.16,15.76,0000 0000 0000 0000 000000
2014-04-10 02:08:08,0.11,2.46,0.00,23.00,28.22,31.03,6.03,30.92,999.52,2033.99,2583.20,2655.99,2867.04,350.74,319.18,15.76,0000 0000 0000 0000 000000
2014-04-10 02:09:08,0.06,2.46,0.00,22.99,28.22,31.00,5.84,30.67,999.51,2033.99,2583.07,2655.88,2867.01,349.82,318.36,15.77,0000 0000 0000 0000 000000
2014-04-10 02:10:08,0.06,2.46,0.00,22.97,28.22,31.01,5.73,30.96,999.51,2033.99,2583.01,2655.66,2866.99,349.29,317.89,15.77,0000 0000 0000 0000 000000
2014-04-10 02:11:09,0.07,2.46,0.00,22.97,28.22,31.05,5.93,31.13,999.51,2033.99,2582.89,2655.36,2866.85,349.70,318.28,15.78,0000 0000 0000 0000 000000
2014-04-10 02:12:09,0.13,2.46,0.00,22.97,28.22,31.04,6.02,31.17,999.52,2033.99,2582.55,2655.16,2866.43,350.28,318.80,15.79,0000 0000 0000 0000 000000
2014-04-10 02:13:09,0.22,2.47,0.00,22.98,28.22,31.07,5.77,31.08,999.52,2033.99,2582.22,2655.05,2866.19,349.01,317.63,15.79,0000 0000 0000 0000 000000
2014-04-10 02:14:09,0.12,2.47,0.00,23.00,28.22,31.05,5.92,31.17,999.53,2033.99,2582.08,2655.01,2866.07,349.60,318.16,15.80,0000 0000 0000 0000 000000
2014-04-10 02:15:10,0.05,2.47,0.00,23.01,28.22,31.04,5.93,31.08,999.53,2033.99,2582.02,2654.98,2866.02,350.39,318.87,15.80,0000 0000 0000 0000 000000
2014-04-10 02:16:10,0.02,2.47,0.00,23.01,28.22,31.01,5.91,31.04,999.53,2033.99,2581.94,2654.85,2866.00,349.90,318.92,15.81,0000 0000 0000 0000 000000
2014-04-10 02:17:10,0.07,2.47,0.00,23.02,28.22,30.97,5.76,31.17,999.53,2033.99,2581.66,2654.54,2865.96,349.61,318.15,15.82,0000 0000 0000 0000 000000
2014-04-10 02:18:10,0.14,2.47,0.00,23.02,28.22,31.00,5.85,31.21,999.53,2033.99,2581.30,2654.22,2865.68,349.50,318.05,15.82,0000 0000 0000 0000 000000
2014-04-10 02:19:10,0.23,2.47,0.00,23.02,28.22,30.96,5.83,31.25,999.52,2033.99,2581.10,2654.08,2865.29,350.41,318.62,15.83,0000 0000 0000 0000 000000
2014-04-10 02:20:11,0.13,2.47,0.00,23.02,28.22,30.96,5.83,31.17,999.50,2033.99,2581.03,2654.03,2865.11,349.26,318.11,15.83,0000 0000 0000 0000 000000
2014-04-10 02:21:11,0.05,2.47,0.00,23.00,28.21,30.95,5.84,31.29,999.51,2033.99,2580.96,2654.01,2865.04,349.58,318.13,15.84,0000 0000 0000 0000 000000
2014-04-10 02:22:11,0.03,2.47,0.00,23.00,28.21,30.97,5.76,30.88,999.52,2033.99,2580.82,2653.99,2865.01,349.59,318.14,15.84,0000 0000 0000 0000 000000
2014-04-10 02:23:11,0.04,2.47,0.00,22.99,28.21,31.04,5.95,31.21,999.46,2033.99,2580.47,2653.94,2864.97,349.81,317.87,15.85,0000 0000 0000 0000 000000
2014-04-10 02:24:11,0.09,2.47,0.00,22.99,28.20,31.03,6.09,31.33,999.47,2033.99,2580.17,2653.56,2864.77,349.98,318.49,15.86,0000 0000 0000 0000 000000
2014-04-10 02:25:12,0.22,2.47,0.00,22.98,28.20,30.99,6.07,31.08,999.46,2033.99,2580.06,2653.25,2864.44,350.50,318.98,15.86,0000 0000 0000 0000 000000
2014-04-10 02:26:12,0.15,2.47,0.00,22.97,28.20,30.97,6.08,30.96,999.44,2033.99,2579.98,2653.11,2864.18,350.86,319.31,15.87,0000 0000 0000 0000 000000
2014-04-10 02:27:12,0.09,2.47,0.00,22.97,28.20,30.96,6.02,31.29,999.45,2033.99,2579.71,2653.04,2864.06,350.34,318.51,15.87,0000 0000 0000 0000 000000
2014-04-10 02:28:12,0.09,2.47,0.00,22.97,28.20,31.01,5.93,31.29,999.41,2033.99,2579.33,2653.01,2864.02,350.30,318.70,15.88,0000 0000 0000 0000 000000
2014-04-10 02:29:13,0.09,2.48,0.00,22.97,28.20,30.96,5.93,31.29,999.42,2033.99,2579.14,2652.99,2864.00,349.99,318.51,15.89,0000 0000 0000 0000 000000
2014-04-10 02:30:13,0.04,2.48,0.00,22.99,28.20,30.94,6.05,31.33,999.42,2033.99,2579.04,2652.90,2863.97,350.22,318.65,15.89,0000 0000 0000 0000 000000
2014-04-10 02:31:13,0.04,2.48,0.00,22.99,28.20,30.96,5.98,31.33,999.48,2033.99,2579.00,2652.73,2863.77,350.01,318.67,15.90,0000 0000 0000 0000 000000
2014-04-10 02:32:13,0.09,2.48,0.00,22.99,28.20,30.96,5.92,31.42,999.47,2033.99,2578.83,2652.41,2863.38,350.37,318.84,15.90,0000 0000 0000 0000 000000
2014-04-10 02:33:14,0.20,2.48,0.00,22.99,28.20,30.97,5.83,31.33,999.47,2033.99,2578.44,2652.17,2863.14,349.90,318.42,15.91,0000 0000 0000 0000 000000
2014-04-10 02:34:14,0.17,2.48,0.00,22.99,28.20,30.95,5.82,31.00,999.45,2033.99,2578.18,2652.06,2863.05,350.13,318.63,15.91,0000 0000 0000 0000 000000
2014-04-10 02:35:14,0.08,2.48,0.00,22.99,28.20,30.97,6.09,31.29,999.42,2033.99,2578.06,2652.02,2863.01,350.36,318.82,15.92,0000 0000 0000 0000 000000
2014-04-10 02:36:14,0.03,2.48,0.00,22.99,28.20,30.96,6.01,31.29,999.37,2033.99,2578.02,2651.99,2863.00,349.94,318.42,15.93,0000 0000 0000 0000 000000
2014-04-10 02:37:14,0.01,2.48,0.00,23.00,28.20,30.97,5.95,31.50,999.36,2033.99,2577.98,2651.98,2862.96,349.94,318.42,15.93,0000 0000 0000 0000 000000